Tracking 18624 objects as of 27-April-2017
HD Live streaming from Space Station
objects crossing your sky now

SJ-7

Track SJ-7 now!
10-day predictions
SJ-7 is classified as:


NORAD ID: 28737
Int'l Code: 2005-024A
Perigee: 563.9 km
Apogee: 613.1 km
Inclination: 97.7 °
Period: 96.3 minutes
Semi major axis: 6959 km
RCS: 3.0015 m2 (large)
Launch date: July 5, 2005
Source: People's Republic of China (PRC)
Launch site: Jiuquan Satellite Launch Center, China (JSC)
Your satellite tracking list
Your tracking list is empty





NASA's NSSDC Master Catalog

Two Line Element Set (TLE):
1 28737U 05024A   17115.85840497 +.00001319 +00000-0 +12347-3 0  9992
2 28737 097.6598 123.9639 0035307 127.0242 233.4202 14.95319163647131
Source of the keplerian elements: AFSPC